Meteo pe oră la Dziecioly

Astăzi, 16 Ianuarie, Sâmbătă

Timp Temperatura Precipitaţii Vânt Presiune Umiditate
00:00 -14°C° 0 mm 2 m/s 754 mmHg 92%
01:00 -15°C° 0 mm 3 m/s 754 mmHg 92%
02:00 -15°C° 0 mm 3 m/s 754 mmHg 93%
03:00 -14°C° 0 mm 2 m/s 753 mmHg 94%
04:00 -14°C° 0 mm 2 m/s 753 mmHg 95%
05:00 -13°C° 0 mm 2 m/s 753 mmHg 95%
06:00 -13°C° 0 mm 2 m/s 753 mmHg 96%
07:00 -13°C° 0 mm 2 m/s 753 mmHg 96%
08:00 -12°C° 0 mm 3 m/s 753 mmHg 94%
09:00 -10°C° 0 mm 3 m/s 752 mmHg 92%
10:00 -10°C° 0 mm 4 m/s 752 mmHg 90%
11:00 -8°C° 0.3 mm 5 m/s 751 mmHg 91%
12:00 -8°C° 0.3 mm 6 m/s 750 mmHg 92%
13:00 -7°C° 0.3 mm 7 m/s 749 mmHg 93%
14:00 -7°C° 0.6 mm 8 m/s 749 mmHg 93%
15:00 -8°C° 0.6 mm 8 m/s 748 mmHg 93%
16:00 -9°C° 0.6 mm 9 m/s 748 mmHg 93%
17:00 -11°C° 0.3 mm 8 m/s 748 mmHg 92%
18:00 -13°C° 0.3 mm 7 m/s 748 mmHg 90%
19:00 -15°C° 0.3 mm 6 m/s 748 mmHg 89%
20:00 -15°C° 0 mm 5 m/s 748 mmHg 90%
21:00 -17°C° 0 mm 5 m/s 749 mmHg 90%
22:00 -18°C° 0 mm 5 m/s 749 mmHg 91%
23:00 -18°C° 0.1 mm 5 m/s 750 mmHg 91%

Mâine, 17 Ianuarie, Duminică

Timp Temperatura Precipitaţii Vânt Presiune Umiditate
00:00 -19°C° 0.1 mm 5 m/s 750 mmHg 92%
01:00 -19°C° 0.1 mm 5 m/s 751 mmHg 92%
02:00 -20°C° 0 mm 5 m/s 751 mmHg 92%
03:00 -19°C° 0 mm 4 m/s 752 mmHg 93%
04:00 -19°C° 0 mm 4 m/s 752 mmHg 93%
05:00 -20°C° 0 mm 4 m/s 752 mmHg 93%
06:00 -19°C° 0 mm 3 m/s 753 mmHg 94%
07:00 -21°C° 0 mm 3 m/s 753 mmHg 94%
08:00 -19°C° 0 mm 3 m/s 754 mmHg 94%
09:00 -18°C° 0 mm 2 m/s 754 mmHg 93%
10:00 -17°C° 0 mm 2 m/s 755 mmHg 92%
11:00 -17°C° 0 mm 2 m/s 755 mmHg 90%
12:00 -16°C° 0 mm 2 m/s 755 mmHg 88%
13:00 -13°C° 0 mm 1 m/s 756 mmHg 87%
14:00 -13°C° 0 mm 1 m/s 756 mmHg 89%
15:00 -14°C° 0 mm 1 m/s 756 mmHg 91%
16:00 -17°C° 0 mm 2 m/s 756 mmHg 93%
17:00 -15°C° 0 mm 1 m/s 756 mmHg 92%
18:00 -15°C° 0 mm 1 m/s 756 mmHg 92%
19:00 -15°C° 0 mm 1 m/s 756 mmHg 91%
20:00 -16°C° 0 mm 1 m/s 756 mmHg 90%
21:00 -16°C° 0 mm 0 m/s 757 mmHg 89%
22:00 -16°C° 0 mm 0 m/s 757 mmHg 88%
23:00 -16°C° 0 mm 0 m/s 757 mmHg 88%

Poimâine, 18 Ianuarie, Luni

Timp Temperatura Precipitaţii Vânt Presiune Umiditate
00:00 -16°C° 0 mm 1 m/s 757 mmHg 89%
01:00 -16°C° 0 mm 1 m/s 757 mmHg 89%
02:00 -17°C° 0 mm 1 m/s 757 mmHg 89%
03:00 -17°C° 0 mm 1 m/s 757 mmHg 90%
04:00 -17°C° 0 mm 1 m/s 757 mmHg 90%
05:00 -17°C° 0 mm 1 m/s 757 mmHg 90%
06:00 -17°C° 0 mm 0 m/s 757 mmHg 90%
07:00 -17°C° 0 mm 0 m/s 757 mmHg 90%
08:00 -16°C° 0 mm 1 m/s 757 mmHg 88%
09:00 -15°C° 0 mm 1 m/s 757 mmHg 87%
10:00 -14°C° 0 mm 1 m/s 757 mmHg 85%
11:00 -13°C° 0 mm 1 m/s 757 mmHg 84%
12:00 -12°C° 0 mm 1 m/s 757 mmHg 83%
13:00 -11°C° 0 mm 1 m/s 757 mmHg 82%
14:00 -11°C° 0 mm 1 m/s 756 mmHg 85%
15:00 -12°C° 0 mm 1 m/s 756 mmHg 88%
16:00 -13°C° 0 mm 1 m/s 756 mmHg 91%
17:00 -13°C° 0 mm 1 m/s 756 mmHg 91%
18:00 -12°C° 0 mm 1 m/s 756 mmHg 91%
19:00 -14°C° 0 mm 2 m/s 756 mmHg 92%
20:00 -15°C° 0 mm 2 m/s 756 mmHg 92%
21:00 -15°C° 0 mm 2 m/s 755 mmHg 92%
22:00 -15°C° 0 mm 2 m/s 755 mmHg 92%
23:00 -14°C° 0 mm 2 m/s 755 mmHg 92%

19 Ianuarie, Marţi

Timp Temperatura Precipitaţii Vânt Presiune Umiditate
00:00 -15°C° 0 mm 3 m/s 754 mmHg 91%
01:00 -14°C° 0 mm 3 m/s 754 mmHg 91%
02:00 -14°C° 0 mm 3 m/s 754 mmHg 92%
03:00 -13°C° 0 mm 3 m/s 753 mmHg 93%
04:00 -12°C° 0 mm 3 m/s 753 mmHg 94%
05:00 -10°C° 0.2 mm 3 m/s 752 mmHg 95%
06:00 -9°C° 0.2 mm 3 m/s 752 mmHg 95%
07:00 -8°C° 0.2 mm 3 m/s 752 mmHg 95%
08:00 -7°C° 0.3 mm 3 m/s 752 mmHg 96%
09:00 -5°C° 0.3 mm 3 m/s 752 mmHg 96%
10:00 -4°C° 0.3 mm 3 m/s 752 mmHg 97%
11:00 -2°C° 0.2 mm 3 m/s 751 mmHg 97%
12:00 -1°C° 0.2 mm 3 m/s 751 mmHg 98%
13:00 0°C° 0.2 mm 3 m/s 751 mmHg 98%
14:00 -1°C° 0 mm 3 m/s 751 mmHg 98%
15:00 -1°C° 0 mm 3 m/s 750 mmHg 97%
16:00 -1°C° 0 mm 3 m/s 750 mmHg 97%
17:00 -1°C° 0 mm 3 m/s 750 mmHg 96%
18:00 -1°C° 0 mm 3 m/s 750 mmHg 96%
19:00 -3°C° 0 mm 4 m/s 750 mmHg 95%
20:00 -3°C° 0.1 mm 4 m/s 749 mmHg 95%
21:00 -4°C° 0.1 mm 5 m/s 749 mmHg 95%
22:00 -4°C° 0.1 mm 5 m/s 749 mmHg 95%
23:00 -4°C° 0.2 mm 5 m/s 748 mmHg 95%

20 Ianuarie, Miercuri

Timp Temperatura Precipitaţii Vânt Presiune Umiditate
00:00 -4°C° 0.2 mm 5 m/s 748 mmHg 96%
01:00 -4°C° 0.2 mm 6 m/s 748 mmHg 96%
02:00 -3°C° 0.6 mm 6 m/s 747 mmHg 97%
03:00 -3°C° 0.6 mm 6 m/s 747 mmHg 97%
04:00 -3°C° 0.6 mm 6 m/s 746 mmHg 97%
05:00 -1°C° 0.3 mm 5 m/s 746 mmHg 97%
06:00 -1°C° 0.3 mm 5 m/s 746 mmHg 97%
07:00 -1°C° 0.3 mm 5 m/s 746 mmHg 96%
08:00 -1°C° 0.1 mm 5 m/s 746 mmHg 96%
09:00 -1°C° 0.1 mm 5 m/s 746 mmHg 96%
10:00 -1°C° 0.1 mm 5 m/s 746 mmHg 95%
11:00 -1°C° 0 mm 5 m/s 746 mmHg 96%
12:00 0°C° 0 mm 5 m/s 746 mmHg 97%
13:00 0°C° 0 mm 5 m/s 746 mmHg 98%
14:00 0°C° 0 mm 5 m/s 746 mmHg 96%
15:00 0°C° 0 mm 5 m/s 746 mmHg 93%
16:00 0°C° 0 mm 5 m/s 745 mmHg 91%
17:00 0°C° 0 mm 5 m/s 745 mmHg 88%
18:00 0°C° 0 mm 5 m/s 745 mmHg 85%
19:00 0°C° 0 mm 5 m/s 745 mmHg 82%
20:00 0°C° 0 mm 5 m/s 745 mmHg 82%
21:00 0°C° 0 mm 5 m/s 745 mmHg 82%
22:00 0°C° 0 mm 5 m/s 745 mmHg 82%
23:00 -1°C° 0 mm 5 m/s 745 mmHg 82%

21 Ianuarie, Joi

Timp Temperatura Precipitaţii Vânt Presiune Umiditate
00:00 -1°C° 0 mm 5 m/s 745 mmHg 82%
01:00 -1°C° 0 mm 5 m/s 745 mmHg 82%
02:00 -1°C° 0 mm 5 m/s 745 mmHg 82%
03:00 -2°C° 0 mm 5 m/s 745 mmHg 82%
04:00 -2°C° 0 mm 5 m/s 745 mmHg 82%
05:00 -2°C° 0 mm 5 m/s 745 mmHg 83%
06:00 -2°C° 0 mm 5 m/s 744 mmHg 84%
07:00 -2°C° 0 mm 4 m/s 744 mmHg 85%
08:00 -2°C° 0 mm 4 m/s 744 mmHg 87%
09:00 -1°C° 0 mm 4 m/s 744 mmHg 88%
10:00 0°C° 0 mm 3 m/s 744 mmHg 90%
11:00 +1°C° 0 mm 3 m/s 743 mmHg 92%
12:00 0°C° 0 mm 4 m/s 743 mmHg 95%
13:00 0°C° 0 mm 4 m/s 742 mmHg 98%
14:00 0°C° 0 mm 4 m/s 742 mmHg 97%
15:00 +1°C° 0 mm 3 m/s 742 mmHg 96%
16:00 +1°C° 0 mm 3 m/s 742 mmHg 95%
17:00 0°C° 0 mm 4 m/s 742 mmHg 94%
18:00 -1°C° 0 mm 4 m/s 743 mmHg 93%
19:00 -1°C° 0 mm 4 m/s 743 mmHg 92%
20:00 -1°C° 0 mm 4 m/s 744 mmHg 91%
21:00 -1°C° 0 mm 4 m/s 744 mmHg 90%
22:00 -1°C° 0 mm 5 m/s 745 mmHg 89%
23:00 -1°C° 0 mm 4 m/s 745 mmHg 89%
Arată mai mult

Formular de consimțământ

Meteoprog și furnizorii noștri de servicii pot stoca și accesa date personale, precum cookies, identificatori de dispozitiv sau alte tehnologii similare pe dispozitivul dumneavoastră și procesa astfel de date pentru a personaliza conținutul și reclamele, dar și pentru a oferi caracteristici de social media și pentru a analiza traficul.

  • Stocarea și/sau accesarea informațiilor pe dispozitivul dumneavoastră

    Cookies, identificatori de dispozitiv sau alte informații pot fi stocate sau accesate pe dispozitiv în scopurile indicate mai sus.

  • Reclame și conținut personalizat, evaluarea reclamelor și a conținutului, informații despre audiențe și dezvoltarea produselor

    Reclamele și conținutul pot fi personalizate pe baza unui profil. Pot fi adăugate date suplimentare pentru a personaliza mai bine reclamele și conținutul. Performanța reclamelor și conținutului poate fi măsurată. Pot fi obținute informații despre utilizatorii care au văzut reclamele și conținutul. Aceste date pot fi utilizate pentru a dezvolta sau îmbunătăți experiența utilizatorilor, sistemele și software-ul.

Dând clic pe ‘Sunt de acord’, permiteți utilizarea cookie-urilor menționate, a identificatorilor de dispozitiv, balizelor web sau altor tehnologii similare. Setările pot fi modificate din browser-ul dispozitivului dumneavoastră.

În anumite scopuri, interesele legitime pot prima asupra consimțământului. Puteți citi mai multe informații în acest sens în Politica privind Confidențialitatea Datelor și Cookie.